Regional Weather Roundup
Issued by NWS

Home | Current Version | Previous Version | Text Only | Print | Product List | Glossary On
Versions: 1 2 3 4 5 6 7 8 9 10 11 12 13 14 15 16 17 18 19 20 21 22 23 24 25 26 27 28 29 30 31 32 33 34 35 36 37 38 39 40 41 42 43 44 45 46 47 48 49 50
000
ASUS43 KDTX 040910
RWRMI
MICHIGAN HOURLY REGIONAL WEATHER ROUNDUP
NATIONAL WEATHER SERVICE DETROIT/PONTIAC MI
500 AM EDT MON MAY 04 2015

NOTE: "FAIR" INDICATES FEW OR NO CLOUDS BELOW 12,000 FEET WITH NO
SIGNIFICANT WEATHER AND/OR OBSTRUCTION TO VISIBILITY.

MIZ047>049-052>055-059>063-066>070-074>076-081>083-041000-
SOUTHEAST LOWER MICHIGAN

CITY           SKY/WX    TMP DP  RH WIND       PRES   REMARKS
ADRIAN         MOCLDY    62  48  60 SW8       30.03S
ALMA           LGT RAIN  61  57  88 SW10G18   29.97R
ANN ARBOR      MOCLDY    61  49  64 SW7       30.02S
BAD AXE        PTCLDY    60  46  59 S7        29.95F
CARO           MOCLDY    65  47  53 CALM      29.96R
DETROIT CITY   MOCLDY    65  48  54 SW12      30.02R
DETROIT        CLOUDY    65  49  56 S8        30.02S
FLINT          CLOUDY    69  46  43 SW9       29.98S
GROSSE ILE     CLOUDY    57  54  88 S7        30.02R
HILLSDALE      CLOUDY    62  48  58 S5        30.02F
HOWELL         CLOUDY    66  46  47 SW8       30.00R

CITY           SKY/WX    TMP DP  RH WIND       PRES   REMARKS
JACKSON        LGT RAIN  61  52  72 W7        30.02R
LAMBERTVILLE   PTCLDY    64  46  52 SW8       30.04S
LANSING        LGT RAIN  61  54  77 SW12      30.00R
LAPEER         FAIR      66  45  45 SW10      29.98S
MASON          LGT RAIN  65  49  55 SW12G22   30.01R
MONROE         MOCLDY    63  48  59 S6        30.02S
PONTIAC        MOCLDY    64  47  53 S6        30.00S
PORT HOPE        N/A     65  46  50 S7        29.92F
PORT HURON     CLOUDY    61  50  67 S6        30.01S
TRI CITIES     CLOUDY    68  48  48 SW13      29.95R
MIDLAND        CLOUDY    67  47  50 SW6       29.94R
TROY           MOCLDY    66  47  50 S7        30.02S
SAGINAW HB     CLOUDY    66  46  48 SW13      29.95S
$$
MIZ043>046-050>051-056>058-064>065-071>073-077>080-041000-
SOUTHWEST LOWER MICHIGAN

CITY           SKY/WX    TMP DP  RH WIND       PRES   REMARKS
BATTLE CREEK   LGT RAIN  61  54  77 SE9       29.97F
BENTON HARBOR  CLOUDY    65  47  52 S8        29.91F
BIG RAPIDS     CLOUDY    59  56  87 SW9       29.94S
COLDWATER      CLOUDY    62  48  62 SE3       30.00F
FREMONT        MOCLDY    58  56  96 SE5       29.92F
HOLLAND        LGT RAIN  61  54  77 S10       29.94R
GRAND RAPIDS   LGT RAIN  59  55  87 SE13      29.93F
IONIA          HVY RAIN  59  56  91 S15       29.96F
KALAMAZOO      CLOUDY    61  53  75 S8        29.96F
LUDINGTON      LGT RAIN  56  53  89 SE6       29.89F
MARSHALL       LGT RAIN  56  55  98 E5        29.99F
MOUNT PLEASANT LGT RAIN  61  56  83 SW14      29.94R
MUSKEGON       CLOUDY    62  50  64 S18       29.92R
SOUTH HAVEN    CLOUDY    64  50  60 S8        29.92S
$$
MIZ016>042-041000-
NORTHERN LOWER MICHIGAN

CITY           SKY/WX    TMP DP  RH WIND       PRES   REMARKS
ALPENA         PTCLDY    54  46  74 S6        29.89F
BEAVER ISLAND  CLOUDY    52  50  93 W8        29.89R
BELLAIRE       CLOUDY    60  51  72 CALM      29.89S
CADILLAC       RAIN      57  54  88 SW8       29.92F
CHARLEVOIX     CLOUDY    60  52  75 SW8       29.90R
FRANKFORT      LGT RAIN  56  50  80 CALM      29.89F
GAYLORD        MOCLDY    59  50  72 S6        29.90S
GRAYLING       CLOUDY    59  46  62 SW5       29.93R
HARBOR SPRINGS CLOUDY    54  49  85 CALM      29.88R
HOUGHTON LAKE  CLOUDY    61  48  62 SW8       29.94R
MANISTEE       CLOUDY    55  50  82 S6        29.90F
OSCODA         MOCLDY    63  49  59 SW6       29.91S
PELLSTON       CLOUDY    58  50  75 CALM      29.86
ROGERS CITY    MOCLDY    57  52  85 S8        29.88S
TRAVERSE CITY  CLOUDY    63  51  65 S5        29.88S
$$
MIZ007>008-015-041000-
EASTERN UPPER MICHIGAN

CITY           SKY/WX    TMP DP  RH WIND       PRES   REMARKS
KINROSS        CLOUDY    54  54 100 S6        29.85R
MACKINAC ISLAN CLOUDY    50  50 100 NW5       29.87R FOG
NEWBERRY       CLOUDY    53  52  95 SW10G21   29.86R
S. S. MARIE    CLOUDY    56  53  90 S7        29.84R
MUNISING         N/A     53  37  54 N10       29.86R
$$
MIZ004>006-011>014-085-041000-
CENTRAL UPPER MICHIGAN

CITY           SKY/WX    TMP DP  RH WIND       PRES   REMARKS
MANISTIQUE     CLOUDY    53  51  94 W5        29.87R
ESCANABA       CLOUDY    54  52  94 W3        29.88R
MENOMINEE      CLOUDY    57  54  88 W3        29.88R
SAWYER-GWINN   CLOUDY    51  41  68 N8        29.88R
$$
MIZ001>003-009>011-084-041000-
WESTERN UPPER MICHIGAN

CITY           SKY/WX    TMP DP  RH WIND       PRES   REMARKS
IRON MOUNTAIN  CLOUDY    53  46  77 NW8       29.88R
HOUGHTON       CLOUDY    50  32  50 N15       29.92R
COPPER HARBOR    N/A     50  32  50 N13       29.91R
IRONWOOD       CLOUDY    50  36  57 N7        29.97R
$$

ABBREVIATIONS USED IN REMARKS
   TC - TEMPERATURE IN CELSIUS
  WCI - WIND CHILL INDEX
   HX - HEAT INDEX
  VSB - VISIBILITY



USA.gov is the U.S. government's official web portal to all federal, state and local government web resources and services.